レモン-パンスターズ彗星

445P/Lemmon-PanSTARRS (2022)

English version
Home page
Updated on November 26, 2022

---------------------------------------------------------------------

・ プロフィール

符号 445P/2022 L5
検出日 2022年6月7日
検出光度 20.0等
検出者 A. Maury and G. Attard (San Pedro de Atacama, Chile)

・ 写真集

・ 軌道要素

Epoch 2022 Aug. 9.0 TT = JDT 2459800.5                                          
T 2022 Aug. 17.83783 TT                                 Rudenko                 
q   2.3785360            (2000.0)            P               Q                  
n   0.12048786     Peri.  213.73785     +0.94142717     +0.33687101             
a   4.0598238      Node   126.56846     -0.30504152     +0.87001845             
e   0.4141283      Incl.    1.08854     -0.14375168     +0.35998030             
P   8.18                                                                        
From 132 observations 1998 Nov. 22-2022 July 2, mean residual 1".5.             

・ 光度変化

        m1 = 14.0 + 5 logΔ + 10.0 log r

---------------------------------------------------------------------

軌道要素はM.P.E.C. 2022-N51に掲載されたものです。
光度グラフはComet for Windowsで作成したものです。

---------------------------------------------------------------------

Copyright(C) Seiichi Yoshida (comet@aerith.net). All rights reserved.